Time,TemperatureF,DewpointF,PressureIn,WindDirection,WindDirectionDegrees,WindSpeedMPH,WindSpeedGustMPH,Humidity,HourlyPrecipIn,Conditions,Clouds,dailyrainin,SoftwareType,DateUTC
2015-05-30 00:00:00,72.7,63.9,30.10,SW,218,2.0,3.0,74,0.00,,OVC,0.00,VWS V14.01,2015-05-30 04:00:00,
2015-05-30 00:05:00,72.9,64.1,30.10,SSW,212,0.0,1.0,74,0.00,,OVC,0.00,VWS V14.01,2015-05-30 04:05:00,
2015-05-30 00:10:00,72.8,64.0,30.10,SW,226,1.0,2.0,74,0.00,,OVC,0.00,VWS V14.01,2015-05-30 04:10:00,
2015-05-30 00:15:00,72.7,63.9,30.10,SW,222,0.0,2.0,74,0.00,,OVC,0.00,VWS V14.01,2015-05-30 04:15:00,
2015-05-30 00:20:00,72.6,63.8,30.10,SSW,203,0.0,2.0,74,0.00,,OVC,0.00,VWS V14.01,2015-05-30 04:20:00,
2015-05-30 00:25:00,72.6,64.2,30.10,SW,218,2.0,2.0,75,0.00,,OVC,0.00,VWS V14.01,2015-05-30 04:25:00,
2015-05-30 00:30:00,72.6,64.2,30.10,SW,233,2.0,2.0,75,0.00,,OVC,0.00,VWS V14.01,2015-05-30 04:30:00,
2015-05-30 00:36:00,72.6,64.2,30.10,SW,229,2.0,2.0,75,0.00,,OVC,0.00,VWS V14.01,2015-05-30 04:36:00,
2015-05-30 00:41:00,72.7,64.7,30.10,WSW,238,2.0,4.0,76,0.00,,OVC,0.00,VWS V14.01,2015-05-30 04:41:00,
2015-05-30 00:46:00,73.4,64.6,30.10,SW,226,3.0,5.0,74,0.00,,OVC,0.00,VWS V14.01,2015-05-30 04:46:00,
2015-05-30 00:51:00,73.8,65.0,30.10,SW,231,4.0,5.0,74,0.00,,OVC,0.00,VWS V14.01,2015-05-30 04:51:00,
2015-05-30 00:56:00,73.9,64.7,30.09,SW,231,3.0,5.0,73,0.00,,OVC,0.00,VWS V14.01,2015-05-30 04:56:00,
2015-05-30 01:01:00,73.9,64.7,30.09,WSW,240,3.0,5.0,73,0.00,,OVC,0.00,VWS V14.01,2015-05-30 05:01:00,
2015-05-30 01:06:00,73.8,65.0,30.09,SSW,209,2.0,3.0,74,0.00,,OVC,0.00,VWS V14.01,2015-05-30 05:06:00,
2015-05-30 01:11:00,73.9,65.1,30.09,WSW,245,2.0,5.0,74,0.00,,OVC,0.00,VWS V14.01,2015-05-30 05:11:00,
2015-05-30 01:16:00,73.8,65.0,30.09,WSW,238,2.0,5.0,74,0.00,,OVC,0.00,VWS V14.01,2015-05-30 05:16:00,
2015-05-30 01:21:00,73.6,65.2,30.09,SW,233,2.0,5.0,75,0.00,,OVC,0.00,VWS V14.01,2015-05-30 05:21:00,
2015-05-30 01:26:00,73.5,65.1,30.09,SW,231,2.0,5.0,75,0.00,,OVC,0.00,VWS V14.01,2015-05-30 05:26:00,
2015-05-30 01:32:00,73.4,65.0,30.08,SW,226,2.0,5.0,75,0.00,,OVC,0.00,VWS V14.01,2015-05-30 05:32:00,
2015-05-30 01:37:00,73.4,65.0,30.08,SSW,204,2.0,3.0,75,0.00,,OVC,0.00,VWS V14.01,2015-05-30 05:37:00,
2015-05-30 01:42:00,73.4,65.0,30.08,SSW,210,1.0,3.0,75,0.00,,OVC,0.00,VWS V14.01,2015-05-30 05:42:00,
2015-05-30 01:47:00,73.3,64.9,30.08,SW,221,1.0,3.0,75,0.00,,OVC,0.00,VWS V14.01,2015-05-30 05:47:00,
2015-05-30 01:52:00,73.3,65.3,30.08,SW,229,2.0,4.0,76,0.00,,OVC,0.00,VWS V14.01,2015-05-30 05:52:00,
2015-05-30 01:57:00,73.3,65.3,30.08,WSW,239,2.0,4.0,76,0.00,,OVC,0.00,VWS V14.01,2015-05-30 05:57:00,
2015-05-30 02:02:00,73.3,65.3,30.08,WSW,242,2.0,4.0,76,0.00,,OVC,0.00,VWS V14.01,2015-05-30 06:02:00,
2015-05-30 02:07:00,73.2,65.2,30.08,SW,233,3.0,3.0,76,0.00,,OVC,0.00,VWS V14.01,2015-05-30 06:07:00,
2015-05-30 02:12:00,73.2,65.6,30.08,SSW,212,2.0,3.0,77,0.00,,OVC,0.00,VWS V14.01,2015-05-30 06:12:00,
2015-05-30 02:18:00,73.3,65.7,30.07,SW,221,2.0,3.0,77,0.00,,OVC,0.00,VWS V14.01,2015-05-30 06:18:00,
2015-05-30 02:23:00,73.3,65.7,30.07,SW,217,2.0,3.0,77,0.00,,OVC,0.00,VWS V14.01,2015-05-30 06:23:00,
2015-05-30 02:28:00,73.1,65.5,30.07,SW,224,2.0,3.0,77,0.00,,OVC,0.00,VWS V14.01,2015-05-30 06:28:00,
2015-05-30 02:33:00,72.9,65.3,30.07,SSW,208,1.0,3.0,77,0.00,,OVC,0.00,VWS V14.01,2015-05-30 06:33:00,
2015-05-30 02:38:00,72.7,65.1,30.07,SW,218,1.0,3.0,77,0.00,,OVC,0.00,VWS V14.01,2015-05-30 06:38:00,
2015-05-30 02:43:00,72.5,65.3,30.07,SW,217,2.0,3.0,78,0.00,,OVC,0.00,VWS V14.01,2015-05-30 06:43:00,
2015-05-30 02:48:00,72.4,65.2,30.07,SW,221,1.0,3.0,78,0.00,,OVC,0.00,VWS V14.01,2015-05-30 06:48:00,
2015-05-30 02:53:00,72.3,65.4,30.07,SSW,212,2.0,3.0,79,0.00,,OVC,0.00,VWS V14.01,2015-05-30 06:53:00,
2015-05-30 02:58:00,72.2,65.3,30.06,SW,215,2.0,4.0,79,0.00,,OVC,0.00,VWS V14.01,2015-05-30 06:58:00,
2015-05-30 03:04:00,72.3,65.4,30.06,SW,221,2.0,4.0,79,0.00,,OVC,0.00,VWS V14.01,2015-05-30 07:04:00,
2015-05-30 03:09:00,72.3,65.4,30.06,WSW,248,2.0,4.0,79,0.00,,OVC,0.00,VWS V14.01,2015-05-30 07:09:00,
2015-05-30 03:14:00,72.4,65.5,30.06,SW,221,3.0,4.0,79,0.00,,OVC,0.00,VWS V14.01,2015-05-30 07:14:00,
2015-05-30 03:19:00,72.6,65.7,30.06,SW,215,2.0,4.0,79,0.00,,OVC,0.00,VWS V14.01,2015-05-30 07:19:00,
2015-05-30 03:24:00,72.6,65.7,30.06,SSW,210,2.0,4.0,79,0.00,,OVC,0.00,VWS V14.01,2015-05-30 07:24:00,
2015-05-30 03:29:00,72.7,65.8,30.06,SW,224,2.0,4.0,79,0.00,,OVC,0.00,VWS V14.01,2015-05-30 07:29:00,
2015-05-30 03:34:00,72.8,65.6,30.06,SW,232,2.0,2.0,78,0.00,,OVC,0.00,VWS V14.01,2015-05-30 07:34:00,
2015-05-30 03:39:00,72.7,65.4,30.07,WSW,239,0.0,3.0,78,0.00,,OVC,0.00,VWS V14.01,2015-05-30 07:39:00,
2015-05-30 03:44:00,72.5,65.6,30.07,WSW,238,0.0,3.0,79,0.00,,OVC,0.00,VWS V14.01,2015-05-30 07:44:00,
2015-05-30 03:50:00,72.4,65.5,30.07,WSW,247,0.0,3.0,79,0.00,,OVC,0.00,VWS V14.01,2015-05-30 07:50:00,
2015-05-30 03:55:00,72.3,65.4,30.07,SW,225,3.0,3.0,79,0.00,,OVC,0.00,VWS V14.01,2015-05-30 07:55:00,
2015-05-30 04:00:00,72.4,65.5,30.07,SW,224,2.0,3.0,79,0.00,,OVC,0.00,VWS V14.01,2015-05-30 08:00:00,
2015-05-30 04:05:00,72.6,65.7,30.06,SW,229,4.0,4.0,79,0.00,,OVC,0.00,VWS V14.01,2015-05-30 08:05:00,
2015-05-30 04:10:00,72.7,65.4,30.06,SW,215,2.0,5.0,78,0.00,,OVC,0.00,VWS V14.01,2015-05-30 08:10:00,
2015-05-30 04:15:00,72.9,65.7,30.06,SW,217,2.0,5.0,78,0.00,,OVC,0.00,VWS V14.01,2015-05-30 08:15:00,
2015-05-30 04:20:00,73.1,65.5,30.06,SW,229,2.0,5.0,77,0.00,,OVC,0.00,VWS V14.01,2015-05-30 08:20:00,
2015-05-30 04:25:00,73.3,65.7,30.06,WSW,238,2.0,5.0,77,0.00,,OVC,0.00,VWS V14.01,2015-05-30 08:25:00,
2015-05-30 04:35:00,73.1,65.5,30.07,WSW,252,2.0,3.0,77,0.00,,OVC,0.00,VWS V14.01,2015-05-30 08:35:00,
2015-05-30 04:40:00,73.0,65.4,30.06,SW,216,2.0,3.0,77,0.00,,OVC,0.00,VWS V14.01,2015-05-30 08:40:00,
2015-05-30 04:45:00,73.1,65.5,30.06,SW,235,2.0,3.0,77,0.00,,OVC,0.00,VWS V14.01,2015-05-30 08:45:00,
2015-05-30 04:51:00,73.0,65.4,30.06,SW,235,3.0,3.0,77,0.00,,OVC,0.00,VWS V14.01,2015-05-30 08:51:00,
2015-05-30 04:56:00,72.9,65.7,30.06,WSW,238,3.0,4.0,78,0.00,,OVC,0.00,VWS V14.01,2015-05-30 08:56:00,
2015-05-30 05:01:00,72.9,65.7,30.06,WSW,245,2.0,4.0,78,0.00,,OVC,0.00,VWS V14.01,2015-05-30 09:01:00,
2015-05-30 05:06:00,72.9,65.7,30.06,WSW,239,2.0,3.0,78,0.00,,OVC,0.00,VWS V14.01,2015-05-30 09:06:00,
2015-05-30 05:11:00,72.9,65.7,30.06,WSW,243,1.0,3.0,78,0.00,,OVC,0.00,VWS V14.01,2015-05-30 09:11:00,
2015-05-30 05:16:00,72.6,65.3,30.06,WSW,247,2.0,3.0,78,0.00,,OVC,0.00,VWS V14.01,2015-05-30 09:16:00,
2015-05-30 05:21:00,72.5,65.3,30.07,SW,217,3.0,4.0,78,0.00,,OVC,0.00,VWS V14.01,2015-05-30 09:21:00,
2015-05-30 05:26:00,72.6,65.3,30.07,SW,236,2.0,4.0,78,0.00,,OVC,0.00,VWS V14.01,2015-05-30 09:26:00,
2015-05-30 05:32:00,72.7,65.4,30.07,WSW,252,1.0,5.0,78,0.00,,OVC,0.00,VWS V14.01,2015-05-30 09:32:00,
2015-05-30 05:37:00,72.6,65.3,30.07,SW,233,1.0,2.0,78,0.00,,OVC,0.00,VWS V14.01,2015-05-30 09:37:00,
2015-05-30 05:42:00,72.6,65.3,30.07,West,261,1.0,3.0,78,0.00,,OVC,0.00,VWS V14.01,2015-05-30 09:42:00,
2015-05-30 05:47:00,72.6,65.3,30.07,WSW,245,1.0,3.0,78,0.00,,OVC,0.00,VWS V14.01,2015-05-30 09:47:00,
2015-05-30 05:52:00,72.4,65.5,30.07,WSW,246,1.0,3.0,79,0.00,,OVC,0.00,VWS V14.01,2015-05-30 09:52:00,
2015-05-30 05:57:00,72.3,65.4,30.07,WSW,257,2.0,3.0,79,0.00,,OVC,0.00,VWS V14.01,2015-05-30 09:57:00,
2015-05-30 06:02:00,72.3,65.4,30.07,SW,218,2.0,4.0,79,0.00,,OVC,0.00,VWS V14.01,2015-05-30 10:02:00,
2015-05-30 06:07:00,72.3,65.4,30.07,WSW,243,3.0,5.0,79,0.00,,OVC,0.00,VWS V14.01,2015-05-30 10:07:00,
2015-05-30 06:13:00,72.4,65.9,30.07,WSW,240,2.0,5.0,80,0.00,,OVC,0.00,VWS V14.01,2015-05-30 10:13:00,
2015-05-30 06:18:00,72.4,65.5,30.07,WSW,246,3.0,5.0,79,0.00,,OVC,0.00,VWS V14.01,2015-05-30 10:18:00,
2015-05-30 06:23:00,72.5,66.0,30.08,WSW,245,2.0,5.0,80,0.00,,OVC,0.00,VWS V14.01,2015-05-30 10:23:00,
2015-05-30 06:28:00,72.3,65.8,30.07,WSW,246,2.0,5.0,80,0.00,,OVC,0.00,VWS V14.01,2015-05-30 10:28:00,
2015-05-30 06:33:00,72.3,65.8,30.08,WSW,246,2.0,5.0,80,0.00,,OVC,0.00,VWS V14.01,2015-05-30 10:33:00,
2015-05-30 06:38:00,72.4,65.9,30.07,WSW,245,2.0,3.0,80,0.00,,OVC,0.00,VWS V14.01,2015-05-30 10:38:00,
2015-05-30 06:43:00,72.4,65.9,30.08,WSW,256,2.0,3.0,80,0.00,,OVC,0.00,VWS V14.01,2015-05-30 10:43:00,
2015-05-30 06:48:00,72.4,65.9,30.08,WSW,245,3.0,3.0,80,0.00,,OVC,0.00,VWS V14.01,2015-05-30 10:48:00,
2015-05-30 06:53:00,72.4,66.2,30.08,WSW,245,2.0,3.0,81,0.00,,OVC,0.00,VWS V14.01,2015-05-30 10:53:00,
2015-05-30 06:59:00,72.3,66.2,30.08,WSW,243,2.0,3.0,81,0.00,,OVC,0.00,VWS V14.01,2015-05-30 10:59:00,
2015-05-30 07:04:00,72.4,65.9,30.08,WSW,243,2.0,4.0,80,0.00,,OVC,0.00,VWS V14.01,2015-05-30 11:04:00,
2015-05-30 07:09:00,72.5,66.0,30.08,WSW,242,2.0,4.0,80,0.00,,OVC,0.00,VWS V14.01,2015-05-30 11:09:00,
2015-05-30 07:14:00,72.6,66.1,30.08,WSW,253,3.0,4.0,80,0.00,,OVC,0.00,VWS V14.01,2015-05-30 11:14:00,
2015-05-30 07:19:00,72.6,66.1,30.08,WSW,247,2.0,4.0,80,0.00,,OVC,0.00,VWS V14.01,2015-05-30 11:19:00,
2015-05-30 07:24:00,72.7,66.2,30.08,WSW,251,2.0,4.0,80,0.00,,OVC,0.00,VWS V14.01,2015-05-30 11:24:00,
2015-05-30 07:29:00,72.8,66.3,30.08,WSW,245,3.0,4.0,80,0.00,,OVC,0.00,VWS V14.01,2015-05-30 11:29:00,
2015-05-30 07:34:00,72.9,66.7,30.08,WSW,254,2.0,3.0,81,0.00,,OVC,0.00,VWS V14.01,2015-05-30 11:34:00,
2015-05-30 07:39:00,72.9,66.7,30.08,SW,236,3.0,3.0,81,0.00,,OVC,0.00,VWS V14.01,2015-05-30 11:39:00,
2015-05-30 07:44:00,73.0,66.5,30.08,WSW,245,2.0,4.0,80,0.00,,OVC,0.00,VWS V14.01,2015-05-30 11:44:00,
2015-05-30 07:50:00,73.1,66.6,30.08,WSW,249,3.0,4.0,80,0.00,,OVC,0.00,VWS V14.01,2015-05-30 11:50:00,
2015-05-30 07:55:00,73.2,66.7,30.08,WSW,248,4.0,4.0,80,0.00,,OVC,0.00,VWS V14.01,2015-05-30 11:55:00,
2015-05-30 08:00:00,73.3,66.8,30.08,WSW,250,3.0,4.0,80,0.00,,OVC,0.00,VWS V14.01,2015-05-30 12:00:00,
2015-05-30 08:05:00,73.4,66.9,30.08,WSW,245,4.0,4.0,80,0.00,,OVC,0.00,VWS V14.01,2015-05-30 12:05:00,
2015-05-30 08:10:00,73.8,67.2,30.08,WSW,238,3.0,5.0,80,0.00,,OVC,0.00,VWS V14.01,2015-05-30 12:10:00,
2015-05-30 08:15:00,74.0,67.1,30.08,WSW,250,3.0,5.0,79,0.00,,OVC,0.00,VWS V14.01,2015-05-30 12:15:00,
2015-05-30 08:20:00,74.2,67.3,30.08,WSW,256,4.0,6.0,79,0.00,,OVC,0.00,VWS V14.01,2015-05-30 12:20:00,
2015-05-30 08:25:00,74.5,67.6,30.08,WSW,258,3.0,6.0,79,0.00,,OVC,0.00,VWS V14.01,2015-05-30 12:25:00,
2015-05-30 08:30:00,74.6,67.3,30.07,WSW,245,3.0,6.0,78,0.00,,OVC,0.00,VWS V14.01,2015-05-30 12:30:00,
2015-05-30 08:35:00,74.7,67.0,30.07,WSW,253,2.0,4.0,77,0.00,,OVC,0.00,VWS V14.01,2015-05-30 12:35:00,
2015-05-30 08:40:00,74.9,67.2,30.07,WSW,252,3.0,4.0,77,0.00,,OVC,0.00,VWS V14.01,2015-05-30 12:40:00,
2015-05-30 08:46:00,74.9,67.2,30.07,WSW,245,3.0,5.0,77,0.00,,OVC,0.00,VWS V14.01,2015-05-30 12:46:00,
2015-05-30 08:51:00,74.9,67.6,30.07,WSW,255,2.0,5.0,78,0.00,,OVC,0.00,VWS V14.01,2015-05-30 12:51:00,
2015-05-30 08:56:00,75.1,67.8,30.08,West,262,3.0,5.0,78,0.00,,OVC,0.00,VWS V14.01,2015-05-30 12:56:00,
2015-05-30 09:01:00,75.4,67.3,30.07,WSW,248,3.0,5.0,76,0.00,,OVC,0.00,VWS V14.01,2015-05-30 13:01:00,
2015-05-30 09:06:00,75.7,67.6,30.07,West,259,2.0,4.0,76,0.00,,OVC,0.00,VWS V14.01,2015-05-30 13:06:00,
2015-05-30 09:11:00,75.9,67.8,30.07,WSW,242,3.0,4.0,76,0.00,,OVC,0.00,VWS V14.01,2015-05-30 13:11:00,
2015-05-30 09:16:00,76.0,67.9,30.07,West,268,3.0,4.0,76,0.00,,OVC,0.00,VWS V14.01,2015-05-30 13:16:00,
2015-05-30 09:21:00,76.1,67.6,30.07,WSW,243,3.0,4.0,75,0.00,,OVC,0.00,VWS V14.01,2015-05-30 13:21:00,
2015-05-30 09:26:00,76.3,68.2,30.07,WSW,245,3.0,5.0,76,0.00,,OVC,0.00,VWS V14.01,2015-05-30 13:26:00,
2015-05-30 09:32:00,76.6,68.9,30.07,West,273,3.0,5.0,77,0.00,,OVC,0.00,VWS V14.01,2015-05-30 13:32:00,
2015-05-30 09:37:00,76.6,68.1,30.07,SW,235,4.0,5.0,75,0.00,,OVC,0.00,VWS V14.01,2015-05-30 13:37:00,
2015-05-30 09:42:00,76.6,68.5,30.07,SW,231,4.0,5.0,76,0.00,,OVC,0.00,VWS V14.01,2015-05-30 13:42:00,
2015-05-30 09:47:00,76.7,68.6,30.07,SW,236,3.0,5.0,76,0.00,,OVC,0.00,VWS V14.01,2015-05-30 13:47:00,
2015-05-30 09:52:00,77.0,68.5,30.07,WSW,253,3.0,5.0,75,0.00,,OVC,0.00,VWS V14.01,2015-05-30 13:52:00,
2015-05-30 09:57:00,77.8,69.2,30.07,SW,229,5.0,5.0,75,0.00,,OVC,0.00,VWS V14.01,2015-05-30 13:57:00,
2015-05-30 10:02:00,78.3,68.5,30.07,SW,231,7.0,8.0,72,0.00,,OVC,0.00,VWS V14.01,2015-05-30 14:02:00,
2015-05-30 10:07:00,78.7,69.3,30.07,WSW,243,5.0,7.0,73,0.00,,OVC,0.00,VWS V14.01,2015-05-30 14:07:00,
2015-05-30 10:12:00,79.0,68.8,30.06,SW,224,5.0,8.0,71,0.00,,OVC,0.00,VWS V14.01,2015-05-30 14:12:00,
2015-05-30 10:17:00,79.4,69.2,30.07,WSW,250,3.0,8.0,71,0.00,,OVC,0.00,VWS V14.01,2015-05-30 14:17:00,
2015-05-30 10:23:00,80.0,69.3,30.06,WSW,253,5.0,8.0,70,0.00,,OVC,0.00,VWS V14.01,2015-05-30 14:23:00,
2015-05-30 10:28:00,80.3,68.8,30.06,West,267,3.0,8.0,68,0.00,,OVC,0.00,VWS V14.01,2015-05-30 14:28:00,
2015-05-30 10:33:00,80.4,69.3,30.06,WSW,255,4.0,8.0,69,0.00,,OVC,0.00,VWS V14.01,2015-05-30 14:33:00,
2015-05-30 10:38:00,80.2,68.7,30.06,WSW,256,6.0,7.0,68,0.00,,OVC,0.00,VWS V14.01,2015-05-30 14:38:00,
2015-05-30 10:43:00,79.8,67.4,30.06,West,259,4.0,9.0,66,0.00,,OVC,0.00,VWS V14.01,2015-05-30 14:43:00,
2015-05-30 10:48:00,79.7,67.3,30.06,WSW,253,3.0,9.0,66,0.00,,OVC,0.00,VWS V14.01,2015-05-30 14:48:00,
2015-05-30 10:53:00,79.7,67.8,30.06,WSW,253,3.0,9.0,67,0.00,,OVC,0.00,VWS V14.01,2015-05-30 14:53:00,
2015-05-30 10:58:00,79.6,67.2,30.06,WSW,248,5.0,9.0,66,0.00,,OVC,0.00,VWS V14.01,2015-05-30 14:58:00,
2015-05-30 11:04:00,79.6,67.7,30.06,West,273,3.0,9.0,67,0.00,,OVC,0.00,VWS V14.01,2015-05-30 15:04:00,
2015-05-30 11:09:00,79.7,68.2,30.05,West,259,3.0,4.0,68,0.00,,OVC,0.00,VWS V14.01,2015-05-30 15:09:00,
2015-05-30 11:14:00,79.7,67.8,30.05,WSW,253,2.0,5.0,67,0.00,,OVC,0.00,VWS V14.01,2015-05-30 15:14:00,
2015-05-30 11:19:00,79.7,67.8,30.05,WSW,256,3.0,5.0,67,0.00,,OVC,0.00,VWS V14.01,2015-05-30 15:19:00,
2015-05-30 11:24:00,79.7,66.9,30.05,WSW,239,4.0,6.0,65,0.00,,OVC,0.00,VWS V14.01,2015-05-30 15:24:00,
2015-05-30 11:29:00,79.6,67.2,30.05,West,280,3.0,7.0,66,0.00,,OVC,0.00,VWS V14.01,2015-05-30 15:29:00,
2015-05-30 11:34:00,79.8,67.0,30.05,WSW,248,4.0,5.0,65,0.00,,OVC,0.00,VWS V14.01,2015-05-30 15:34:00,
2015-05-30 11:39:00,80.1,67.7,30.05,West,264,4.0,8.0,66,0.00,,OVC,0.00,VWS V14.01,2015-05-30 15:39:00,
2015-05-30 11:45:00,80.6,67.8,30.05,West,259,4.0,8.0,65,0.00,,OVC,0.00,VWS V14.01,2015-05-30 15:45:00,
2015-05-30 11:50:00,81.3,68.9,30.05,WSW,248,4.0,8.0,66,0.00,,OVC,0.00,VWS V14.01,2015-05-30 15:50:00,
2015-05-30 11:55:00,81.8,68.0,30.05,WSW,253,5.0,9.0,63,0.00,,OVC,0.00,VWS V14.01,2015-05-30 15:55:00,
2015-05-30 12:00:00,81.6,67.8,30.05,West,269,2.0,9.0,63,0.00,,OVC,0.00,VWS V14.01,2015-05-30 16:00:00,
2015-05-30 12:05:00,81.7,67.9,30.05,WSW,248,3.0,3.0,63,0.00,,OVC,0.00,VWS V14.01,2015-05-30 16:05:00,
2015-05-30 12:10:00,81.9,69.0,30.04,WSW,257,2.0,6.0,65,0.00,,OVC,0.00,VWS V14.01,2015-05-30 16:10:00,
2015-05-30 12:15:00,82.1,68.3,30.04,WSW,238,7.0,9.0,63,0.00,,OVC,0.00,VWS V14.01,2015-05-30 16:15:00,
2015-05-30 12:20:00,81.9,68.1,30.04,WSW,255,3.0,9.0,63,0.00,,OVC,0.00,VWS V14.01,2015-05-30 16:20:00,
2015-05-30 12:25:00,81.8,68.0,30.04,West,267,4.0,9.0,63,0.00,,OVC,0.00,VWS V14.01,2015-05-30 16:25:00,
2015-05-30 12:31:00,81.9,68.1,30.03,West,269,3.0,9.0,63,0.00,,OVC,0.00,VWS V14.01,2015-05-30 16:31:00,
2015-05-30 12:36:00,82.4,69.5,30.03,WSW,239,4.0,4.0,65,0.00,,OVC,0.00,VWS V14.01,2015-05-30 16:36:00,
2015-05-30 12:41:00,83.0,70.5,30.03,WSW,245,4.0,5.0,66,0.00,,OVC,0.00,VWS V14.01,2015-05-30 16:41:00,
2015-05-30 12:46:00,83.5,70.1,30.02,WSW,241,5.0,6.0,64,0.00,,OVC,0.00,VWS V14.01,2015-05-30 16:46:00,
2015-05-30 12:51:00,83.2,68.4,30.02,West,263,2.0,6.0,61,0.00,,OVC,0.00,VWS V14.01,2015-05-30 16:51:00,
2015-05-30 13:01:00,82.1,67.3,30.02,West,259,4.0,7.0,61,0.00,,OVC,0.00,VWS V14.01,2015-05-30 17:01:00,
2015-05-30 13:06:00,82.1,67.3,30.02,WSW,240,6.0,6.0,61,0.00,,OVC,0.00,VWS V14.01,2015-05-30 17:06:00,
2015-05-30 13:11:00,82.2,67.9,30.01,West,267,4.0,7.0,62,0.00,,OVC,0.00,VWS V14.01,2015-05-30 17:11:00,
2015-05-30 13:16:00,82.3,68.5,30.01,WSW,255,4.0,7.0,63,0.00,,OVC,0.00,VWS V14.01,2015-05-30 17:16:00,
2015-05-30 13:21:00,82.5,67.7,30.01,West,260,3.0,7.0,61,0.00,,OVC,0.00,VWS V14.01,2015-05-30 17:21:00,
2015-05-30 13:27:00,82.2,67.9,30.01,WSW,249,4.0,7.0,62,0.00,,OVC,0.00,VWS V14.01,2015-05-30 17:27:00,
2015-05-30 13:32:00,81.8,67.5,30.01,WSW,248,2.0,7.0,62,0.00,,OVC,0.00,VWS V14.01,2015-05-30 17:32:00,
2015-05-30 13:37:00,81.7,67.9,30.01,WSW,248,3.0,4.0,63,0.00,,OVC,0.00,VWS V14.01,2015-05-30 17:37:00,
2015-05-30 13:42:00,81.7,68.3,30.01,West,260,5.0,6.0,64,0.00,,OVC,0.00,VWS V14.01,2015-05-30 17:42:00,
2015-05-30 13:47:00,81.7,68.3,30.01,WSW,255,5.0,6.0,64,0.00,,OVC,0.00,VWS V14.01,2015-05-30 17:47:00,
2015-05-30 13:52:00,81.5,68.6,30.01,WSW,255,4.0,7.0,65,0.00,,OVC,0.00,VWS V14.01,2015-05-30 17:52:00,
2015-05-30 13:57:00,81.6,68.7,30.01,WSW,239,5.0,7.0,65,0.00,,OVC,0.00,VWS V14.01,2015-05-30 17:57:00,
2015-05-30 14:03:00,81.7,68.8,30.00,SW,235,4.0,7.0,65,0.00,,OVC,0.00,VWS V14.01,2015-05-30 18:03:00,
2015-05-30 14:08:00,81.4,68.5,30.00,WSW,248,5.0,5.0,65,0.00,,OVC,0.00,VWS V14.01,2015-05-30 18:08:00,
2015-05-30 14:13:00,81.3,69.7,30.00,SW,236,3.0,5.0,68,0.00,,OVC,0.00,VWS V14.01,2015-05-30 18:13:00,
2015-05-30 14:18:00,81.7,70.6,30.00,WSW,255,5.0,6.0,69,0.00,,OVC,0.00,VWS V14.01,2015-05-30 18:18:00,
2015-05-30 14:23:00,82.0,69.5,30.00,West,269,5.0,9.0,66,0.00,,OVC,0.00,VWS V14.01,2015-05-30 18:23:00,
2015-05-30 14:28:00,82.0,69.1,30.00,WSW,243,7.0,9.0,65,0.00,,OVC,0.00,VWS V14.01,2015-05-30 18:28:00,
2015-05-30 14:33:00,81.4,69.4,30.00,WSW,240,5.0,10.0,67,0.00,,OVC,0.00,VWS V14.01,2015-05-30 18:33:00,
2015-05-30 14:38:00,81.2,68.3,30.00,WSW,245,7.0,8.0,65,0.00,,OVC,0.00,VWS V14.01,2015-05-30 18:38:00,
2015-05-30 14:43:00,81.9,69.0,30.00,WSW,242,4.0,8.0,65,0.00,,OVC,0.00,VWS V14.01,2015-05-30 18:43:00,
2015-05-30 14:48:00,82.3,68.9,29.99,WSW,250,4.0,8.0,64,0.00,,OVC,0.00,VWS V14.01,2015-05-30 18:48:00,
2015-05-30 14:54:00,82.4,68.6,29.99,WSW,242,4.0,8.0,63,0.00,,OVC,0.00,VWS V14.01,2015-05-30 18:54:00,
2015-05-30 14:59:00,81.7,67.9,29.99,WSW,239,3.0,8.0,63,0.00,,OVC,0.00,VWS V14.01,2015-05-30 18:59:00,
2015-05-30 15:04:00,81.7,69.7,29.99,WSW,243,3.0,8.0,67,0.00,,OVC,0.00,VWS V14.01,2015-05-30 19:04:00,
2015-05-30 15:09:00,82.0,69.1,29.98,SW,229,6.0,6.0,65,0.00,,OVC,0.00,VWS V14.01,2015-05-30 19:09:00,
2015-05-30 15:14:00,82.3,67.5,29.97,WSW,256,4.0,8.0,61,0.00,,OVC,0.00,VWS V14.01,2015-05-30 19:14:00,
2015-05-30 15:19:00,82.1,67.8,29.97,WSW,253,3.0,8.0,62,0.00,,OVC,0.00,VWS V14.01,2015-05-30 19:19:00,
2015-05-30 15:24:00,82.0,68.6,29.97,West,267,4.0,8.0,64,0.00,,OVC,0.00,VWS V14.01,2015-05-30 19:24:00,
2015-05-30 15:29:00,82.0,68.6,29.97,WSW,241,5.0,8.0,64,0.00,,OVC,0.00,VWS V14.01,2015-05-30 19:29:00,
2015-05-30 15:34:00,82.6,69.2,29.96,WSW,245,4.0,5.0,64,0.00,,OVC,0.00,VWS V14.01,2015-05-30 19:34:00,
2015-05-30 15:40:00,82.3,68.0,29.96,WSW,240,5.0,8.0,62,0.00,,OVC,0.00,VWS V14.01,2015-05-30 19:40:00,
2015-05-30 15:45:00,81.9,67.1,29.96,West,269,5.0,9.0,61,0.00,,OVC,0.00,VWS V14.01,2015-05-30 19:45:00,
2015-05-30 15:50:00,81.5,66.8,29.96,WSW,245,6.0,9.0,61,0.00,,OVC,0.00,VWS V14.01,2015-05-30 19:50:00,
2015-05-30 15:55:00,81.1,67.3,29.97,West,262,4.0,9.0,63,0.00,,OVC,0.00,VWS V14.01,2015-05-30 19:55:00,
2015-05-30 16:00:00,80.8,67.9,29.97,WSW,240,8.0,9.0,65,0.00,,OVC,0.00,VWS V14.01,2015-05-30 20:00:00,
2015-05-30 16:05:00,79.4,68.8,29.98,West,274,3.0,3.0,70,0.00,,OVC,0.00,VWS V14.01,2015-05-30 20:05:00,
2015-05-30 16:10:00,77.7,69.5,29.98,WNW,293,2.0,4.0,76,0.00,,OVC,0.00,VWS V14.01,2015-05-30 20:10:00,
2015-05-30 16:15:00,76.3,70.1,29.97,NW,313,1.0,4.0,81,0.00,,OVC,0.00,VWS V14.01,2015-05-30 20:15:00,
2015-05-30 16:20:00,75.1,69.6,29.97,NW,308,1.0,5.0,83,0.00,,OVC,0.00,VWS V14.01,2015-05-30 20:20:00,
2015-05-30 16:25:00,74.3,69.5,29.97,NW,322,2.0,5.0,85,0.00,,OVC,0.00,VWS V14.01,2015-05-30 20:25:00,
2015-05-30 16:30:00,73.7,68.9,29.97,NW,325,0.0,5.0,85,0.00,,OVC,0.00,VWS V14.01,2015-05-30 20:30:00,
2015-05-30 16:35:00,73.2,69.1,29.98,NW,309,2.0,6.0,87,0.08,,OVC,0.08,VWS V14.01,2015-05-30 20:35:00,
2015-05-30 16:41:00,72.5,69.1,29.99,WSW,253,2.0,6.0,89,0.15,,OVC,0.15,VWS V14.01,2015-05-30 20:41:00,
2015-05-30 16:46:00,72.2,69.1,29.98,NW,309,3.0,6.0,90,0.15,,OVC,0.15,VWS V14.01,2015-05-30 20:46:00,
2015-05-30 16:51:00,71.9,69.1,29.99,NW,311,0.0,6.0,91,0.15,,OVC,0.15,VWS V14.01,2015-05-30 20:51:00,
2015-05-30 16:56:00,71.8,69.3,30.00,NW,311,0.0,6.0,92,0.15,,OVC,0.15,VWS V14.01,2015-05-30 20:56:00,
2015-05-30 17:01:00,71.8,69.7,29.99,NW,311,0.0,6.0,93,0.16,,OVC,0.16,VWS V14.01,2015-05-30 21:01:00,
2015-05-30 17:06:00,71.9,69.8,29.99,North,353,0.0,0.0,93,0.16,,OVC,0.16,VWS V14.01,2015-05-30 21:06:00,
2015-05-30 17:11:00,72.1,70.0,29.98,North,353,0.0,0.0,93,0.16,,OVC,0.16,VWS V14.01,2015-05-30 21:11:00,
2015-05-30 17:16:00,72.2,70.1,29.98,North,353,0.0,0.0,93,0.16,,OVC,0.16,VWS V14.01,2015-05-30 21:16:00,
2015-05-30 17:21:00,72.2,70.4,29.98,North,353,0.0,0.0,94,0.16,,OVC,0.16,VWS V14.01,2015-05-30 21:21:00,
2015-05-30 17:27:00,72.4,70.6,29.97,North,353,0.0,0.0,94,0.16,,OVC,0.16,VWS V14.01,2015-05-30 21:27:00,
2015-05-30 17:32:00,72.4,70.6,29.96,North,353,0.0,0.0,94,0.16,,OVC,0.16,VWS V14.01,2015-05-30 21:32:00,
2015-05-30 17:37:00,72.5,70.7,29.96,North,352,0.0,0.0,94,0.12,,OVC,0.16,VWS V14.01,2015-05-30 21:37:00,
2015-05-30 17:42:00,72.7,70.9,29.96,North,353,0.0,0.0,94,0.12,,OVC,0.16,VWS V14.01,2015-05-30 21:42:00,
2015-05-30 17:47:00,72.9,71.1,29.97,NNW,336,0.0,0.0,94,0.12,,OVC,0.16,VWS V14.01,2015-05-30 21:47:00,
2015-05-30 17:52:00,72.8,70.7,29.97,NNW,335,0.0,0.0,93,0.12,,OVC,0.16,VWS V14.01,2015-05-30 21:52:00,
2015-05-30 17:57:00,72.4,70.3,29.97,NNW,336,0.0,0.0,93,0.12,,OVC,0.16,VWS V14.01,2015-05-30 21:57:00,
2015-05-30 18:02:00,72.5,70.4,29.96,NNW,336,0.0,0.0,93,0.12,,OVC,0.16,VWS V14.01,2015-05-30 22:02:00,
2015-05-30 18:07:00,72.4,70.3,29.96,NNW,336,0.0,0.0,93,0.00,,OVC,0.16,VWS V14.01,2015-05-30 22:07:00,
2015-05-30 18:12:00,72.6,70.5,29.96,NNW,336,0.0,0.0,93,0.00,,OVC,0.16,VWS V14.01,2015-05-30 22:12:00,
2015-05-30 18:17:00,72.5,70.4,29.95,NNW,338,0.0,0.0,93,0.00,,OVC,0.16,VWS V14.01,2015-05-30 22:17:00,
2015-05-30 18:23:00,72.2,70.1,29.95,North,353,0.0,0.0,93,0.00,,OVC,0.16,VWS V14.01,2015-05-30 22:23:00,
2015-05-30 18:28:00,71.5,69.1,29.95,North,4,0.0,2.0,92,0.00,,OVC,0.16,VWS V14.01,2015-05-30 22:28:00,
2015-05-30 18:33:00,71.1,68.7,29.95,NNW,347,1.0,3.0,92,0.00,,OVC,0.16,VWS V14.01,2015-05-30 22:33:00,
2015-05-30 18:38:00,71.0,68.9,29.96,WNW,299,3.0,3.0,93,0.00,,OVC,0.16,VWS V14.01,2015-05-30 22:38:00,
2015-05-30 18:43:00,70.7,68.3,29.97,NW,309,3.0,4.0,92,0.00,,OVC,0.16,VWS V14.01,2015-05-30 22:43:00,